Powrót do katalogu

STARLINK-36516

AktywnyŁącznośćVLEO
NORAD 67455·PAYLOAD·🇺🇸 United States

Wystrzelony Jan 14, 2026 z Cape Canaveral Space Force Station

Loading…

Następne Przeloty (najbliższe 24 godziny)

TLE

ŚwieżeSource: CelesTrak SupGP

Epoka: Sep 14, 2026, 22:49 UTC

1 67455C 26008L   26257.95118056  .00003580  00000+0  12967-3 0  2570
2 67455  42.9995 216.1806 0001201 256.9415 317.0100 15.27575898    17

Śledź STARLINK-36516 w czasie rzeczywistym z AllMySat

Download on the App Store